This is the latest recevied weather packets stored in our database for station/object DH5DY-6. If no packets are shown the sender has not sent any weather packets the latest 10 day(s).
| Time | Temp. | Humidity | Pressure | Rain* | Wind** | Luminosity | Snow |
|---|---|---|---|---|---|---|---|
| 1787890946 | 17.78° C | 93% | 1005.4 hPa | 0 mm | - | 0 W/m² | - |
| 1787890346 | 17.78° C | 94% | 1005.6 hPa | 0 mm | - | 0 W/m² | - |
| 1787889147 | 17.78° C | 94% | 1005.4 hPa | 0 mm | - | 0 W/m² | - |
| 1787888545 | 17.78° C | 93% | 1006.9 hPa | 0 mm | - | 0 W/m² | - |
| 1787887345 | 18.33° C | 93% | 1007.3 hPa | 0 mm | - | 0 W/m² | - |
| 1787886746 | 18.33° C | 93% | 1007.3 hPa | 0 mm | - | 0 W/m² | - |
| 1787885548 | 18.33° C | 94% | 1007.2 hPa | 0 mm | - | 0 W/m² | - |
| 1787884945 | 18.33° C | 94% | 1007.2 hPa | 0 mm | - | 0 W/m² | - |
| 1787883145 | 18.33° C | 93% | 1007.1 hPa | 0 mm | - | 0 W/m² | - |
| 1787881945 | 18.33° C | 93% | 1007.1 hPa | 0 mm | - | 0 W/m² | - |
| 1787881345 | 18.33° C | 93% | 1007.3 hPa | 0 mm | - | 0 W/m² | - |
| 1787880144 | 18.33° C | 93% | 1007.6 hPa | 0 mm | - | 0 W/m² | - |
| 1787879545 | 18.33° C | 92% | 1007.7 hPa | 0.25 mm | - | 0 W/m² | - |
| 1787878944 | 18.89° C | 92% | 1007.5 hPa | 0.25 mm | - | 0 W/m² | - |
| 1787878344 | 18.89° C | 92% | 1007.2 hPa | 0.51 mm | - | 0 W/m² | - |
| 1787877744 | 18.89° C | 92% | 1007.3 hPa | 0.76 mm | - | 0 W/m² | - |
| 1787876546 | 19.44° C | 91% | 1007.8 hPa | 6.1 mm | - | 0 W/m² | - |
| 1787875943 | 19.44° C | 91% | 1007.9 hPa | 7.37 mm | - | 0 W/m² | - |
| 1787874743 | 19.44° C | 90% | 1008.2 hPa | 10.92 mm | - | 0 W/m² | - |
| 1787872943 | 20° C | 90% | 1008.2 hPa | 5.84 mm | - | 0 W/m² | - |
| 1787872344 | 20.56° C | 89% | 1008.1 hPa | 4.32 mm | - | 0 W/m² | - |
| 1787870543 | 21.11° C | 81% | 1007.1 hPa | 0 mm | - | 0 W/m² | - |
| 1787869343 | 21.67° C | 80% | 1006.7 hPa | 0 mm | - | 0 W/m² | - |
| 1787867543 | 21.67° C | 80% | 1007 hPa | 0 mm | - | 0 W/m² | - |
| 1787866943 | 21.11° C | 82% | 1007.3 hPa | 0 mm | - | 0 W/m² | - |
* Rain latest hour (hover to see other rain measurements)
** Current wind speed in m/s (hover to see current wind gust speed)